Simultaneous Nadir Overpasses (SNOs) Predictions

Prediction of SNOs between GOES-16 and NOAA-19 Satellite Orbit:

Table of predicted SNOs for the next 14.0 days since TLE Epoch: 3/26/2022
Index Date Time (GOES-16) GOES-16 Lat,Lon NOAA-19 Lat,Lon Distance(km) Time Diff (sec)
1 03/28/2022 00:49:08 -0.03, -75.21 -0.65, -77.86 302.48 80
2 03/29/2022 00:34:40 -0.03, -75.21 0.02, -74.98 26.99 80
3 03/30/2022 00:22:51 -0.03, -75.22 0.69, -72.09 356.71 80
4 04/01/2022 12:46:04 0.04, -75.27 0.44, -76.96 192.97 80
5 04/02/2022 12:31:36 0.03, -75.29 -0.23, -74.08 137.29 80
6 04/03/2022 12:19:48 0.03, -75.30 -0.94, -71.21 467.61 80
7 04/05/2022 00:55:05 -0.04, -75.30 -0.89, -79.01 423.69 80
8 04/06/2022 00:43:16 -0.03, -75.32 -0.21, -76.13 93.01 80
9 04/07/2022 00:28:48 -0.03, -75.33 0.47, -73.26 237.78 80
